• In Uzbekistan
  • List of Countries
  • For 7 days
  • Water Temperature
  • Weather Map
  • Weather Widgets
  • user-avatar
    Login

    Hourly Weather Nizhneangarsk

    Today, 18 August, Sunday

    Time Temperature Precipitation Wind Pressure Humidity
    00:00 +14°C° 0 mm 2 mps 714 mmHg 79%
    01:00 +14°C° 0 mm 1 mps 715 mmHg 79%
    02:00 +13°C° 0.1 mm 2 mps 715 mmHg 81%
    03:00 +13°C° 0.1 mm 2 mps 715 mmHg 83%
    04:00 +11°C° 0.1 mm 3 mps 715 mmHg 85%
    05:00 +13°C° 0 mm 2 mps 715 mmHg 83%
    06:00 +14°C° 0 mm 2 mps 715 mmHg 82%
    07:00 +15°C° 0 mm 1 mps 715 mmHg 78%
    08:00 +16°C° 0 mm 2 mps 715 mmHg 76%
    09:00 +17°C° 0 mm 2 mps 715 mmHg 73%
    10:00 +18°C° 0 mm 2 mps 715 mmHg 71%
    11:00 +18°C° 0.1 mm 2 mps 715 mmHg 67%
    12:00 +18°C° 0.1 mm 3 mps 715 mmHg 64%
    13:00 +19°C° 0.1 mm 3 mps 715 mmHg 60%
    14:00 +19°C° 0 mm 3 mps 715 mmHg 59%
    15:00 +19°C° 0 mm 3 mps 715 mmHg 58%
    16:00 +19°C° 0 mm 3 mps 715 mmHg 57%
    17:00 +17°C° 0 mm 2 mps 715 mmHg 64%
    18:00 +16°C° 0 mm 2 mps 715 mmHg 71%
    19:00 +14°C° 0 mm 1 mps 715 mmHg 79%
    20:00 +14°C° 0 mm 1 mps 715 mmHg 81%
    21:00 +13°C° 0 mm 1 mps 715 mmHg 83%
    22:00 +12°C° 0 mm 1 mps 715 mmHg 85%
    23:00 +12°C° 0 mm 1 mps 715 mmHg 86%

    Tomorrow, 19 August, Monday

    Time Temperature Precipitation Wind Pressure Humidity
    00:00 +11°C° 0 mm 0 mps 715 mmHg 86%
    01:00 +10°C° 0 mm 0 mps 715 mmHg 87%
    02:00 +10°C° 0 mm 0 mps 715 mmHg 87%
    03:00 +10°C° 0 mm 0 mps 715 mmHg 88%
    04:00 +11°C° 0 mm 1 mps 715 mmHg 88%
    05:00 +11°C° 0 mm 0 mps 715 mmHg 82%
    06:00 +13°C° 0 mm 0 mps 715 mmHg 75%
    07:00 +15°C° 0 mm 0 mps 715 mmHg 69%
    08:00 +16°C° 0 mm 0 mps 715 mmHg 65%
    09:00 +17°C° 0 mm 0 mps 714 mmHg 61%
    10:00 +18°C° 0 mm 0 mps 714 mmHg 57%
    11:00 +20°C° 0 mm 1 mps 714 mmHg 55%
    12:00 +21°C° 0 mm 1 mps 714 mmHg 54%
    13:00 +20°C° 0 mm 2 mps 714 mmHg 52%
    14:00 +20°C° 0 mm 2 mps 714 mmHg 52%
    15:00 +20°C° 0 mm 2 mps 714 mmHg 52%
    16:00 +20°C° 0 mm 2 mps 714 mmHg 52%
    17:00 +19°C° 0 mm 1 mps 714 mmHg 60%
    18:00 +18°C° 0 mm 1 mps 714 mmHg 67%
    19:00 +15°C° 0 mm 1 mps 715 mmHg 74%
    20:00 +15°C° 0 mm 1 mps 715 mmHg 76%
    21:00 +14°C° 0 mm 1 mps 715 mmHg 78%
    22:00 +14°C° 0 mm 1 mps 715 mmHg 80%
    23:00 +13°C° 0 mm 1 mps 715 mmHg 81%

    Day after tomorrow, 20 August, Tuesday

    Time Temperature Precipitation Wind Pressure Humidity
    00:00 +13°C° 0 mm 1 mps 715 mmHg 82%
    01:00 +13°C° 0 mm 1 mps 716 mmHg 83%
    02:00 +12°C° 0 mm 1 mps 716 mmHg 85%
    03:00 +12°C° 0 mm 1 mps 716 mmHg 87%
    04:00 +12°C° 0 mm 1 mps 716 mmHg 89%
    05:00 +13°C° 0 mm 1 mps 716 mmHg 85%
    06:00 +13°C° 0 mm 1 mps 716 mmHg 81%
    07:00 +14°C° 0 mm 1 mps 717 mmHg 77%
    08:00 +16°C° 0 mm 1 mps 717 mmHg 72%
    09:00 +18°C° 0 mm 1 mps 717 mmHg 67%
    10:00 +18°C° 0 mm 2 mps 717 mmHg 62%
    11:00 +18°C° 0 mm 2 mps 717 mmHg 60%
    12:00 +19°C° 0 mm 2 mps 717 mmHg 57%
    13:00 +20°C° 0 mm 3 mps 717 mmHg 54%
    14:00 +19°C° 0 mm 3 mps 717 mmHg 56%
    15:00 +19°C° 0 mm 3 mps 717 mmHg 57%
    16:00 +19°C° 0 mm 3 mps 717 mmHg 59%
    17:00 +18°C° 0 mm 2 mps 717 mmHg 64%
    18:00 +16°C° 0 mm 2 mps 717 mmHg 69%
    19:00 +15°C° 0 mm 1 mps 717 mmHg 74%
    20:00 +14°C° 0 mm 1 mps 718 mmHg 77%
    21:00 +13°C° 0 mm 1 mps 718 mmHg 79%
    22:00 +12°C° 0 mm 0 mps 718 mmHg 81%
    23:00 +11°C° 0 mm 0 mps 718 mmHg 81%

    21 August, Wednesday

    Time Temperature Precipitation Wind Pressure Humidity
    00:00 +11°C° 0 mm 0 mps 718 mmHg 82%
    01:00 +11°C° 0 mm 0 mps 718 mmHg 82%
    02:00 +11°C° 0 mm 0 mps 718 mmHg 83%
    03:00 +10°C° 0 mm 0 mps 718 mmHg 83%
    04:00 +10°C° 0 mm 0 mps 718 mmHg 84%
    05:00 +12°C° 0 mm 0 mps 718 mmHg 78%
    06:00 +13°C° 0 mm 0 mps 719 mmHg 72%
    07:00 +15°C° 0 mm 0 mps 719 mmHg 66%
    08:00 +18°C° 0 mm 1 mps 718 mmHg 62%
    09:00 +19°C° 0 mm 1 mps 718 mmHg 59%
    10:00 +20°C° 0 mm 1 mps 718 mmHg 55%
    11:00 +20°C° 0 mm 1 mps 718 mmHg 54%
    12:00 +21°C° 0 mm 1 mps 718 mmHg 52%
    13:00 +20°C° 0 mm 2 mps 717 mmHg 51%
    14:00 +20°C° 0 mm 2 mps 717 mmHg 51%
    15:00 +20°C° 0 mm 2 mps 717 mmHg 52%
    16:00 +21°C° 0 mm 1 mps 717 mmHg 52%
    17:00 +19°C° 0 mm 1 mps 717 mmHg 61%
    18:00 +16°C° 0 mm 1 mps 717 mmHg 70%
    19:00 +13°C° 0 mm 0 mps 717 mmHg 79%
    20:00 +13°C° 0 mm 0 mps 717 mmHg 79%
    21:00 +12°C° 0 mm 0 mps 717 mmHg 79%
    22:00 +12°C° 0 mm 0 mps 717 mmHg 79%
    23:00 +12°C° 0 mm 0 mps 717 mmHg 79%

    22 August, Thursday

    Time Temperature Precipitation Wind Pressure Humidity
    00:00 +12°C° 0 mm 0 mps 717 mmHg 79%
    01:00 +11°C° 0 mm 0 mps 717 mmHg 79%
    02:00 +11°C° 0 mm 0 mps 717 mmHg 80%
    03:00 +11°C° 0 mm 0 mps 717 mmHg 80%
    04:00 +12°C° 0 mm 1 mps 717 mmHg 81%
    05:00 +14°C° 0 mm 1 mps 717 mmHg 74%
    06:00 +15°C° 0 mm 1 mps 717 mmHg 67%
    07:00 +18°C° 0 mm 1 mps 717 mmHg 61%
    08:00 +19°C° 0 mm 1 mps 717 mmHg 56%
    09:00 +20°C° 0 mm 1 mps 716 mmHg 52%
    10:00 +21°C° 0 mm 1 mps 716 mmHg 47%
    11:00 +22°C° 0 mm 1 mps 716 mmHg 45%
    12:00 +22°C° 0 mm 1 mps 716 mmHg 43%
    13:00 +23°C° 0 mm 1 mps 716 mmHg 41%
    14:00 +23°C° 0 mm 1 mps 716 mmHg 42%
    15:00 +23°C° 0 mm 1 mps 716 mmHg 43%
    16:00 +22°C° 0 mm 1 mps 716 mmHg 44%
    17:00 +21°C° 0 mm 1 mps 716 mmHg 51%
    18:00 +19°C° 0 mm 1 mps 716 mmHg 58%
    19:00 +16°C° 0 mm 1 mps 716 mmHg 64%
    20:00 +16°C° 0 mm 1 mps 716 mmHg 65%
    21:00 +15°C° 0 mm 1 mps 716 mmHg 65%
    22:00 +14°C° 0 mm 0 mps 716 mmHg 65%
    23:00 +14°C° 0 mm 1 mps 716 mmHg 66%

    23 August, Friday

    Time Temperature Precipitation Wind Pressure Humidity
    00:00 +14°C° 0 mm 1 mps 716 mmHg 67%
    01:00 +14°C° 0 mm 1 mps 716 mmHg 68%
    02:00 +13°C° 0 mm 1 mps 716 mmHg 69%
    03:00 +13°C° 0 mm 1 mps 716 mmHg 69%
    04:00 +13°C° 0 mm 1 mps 716 mmHg 69%
    05:00 +15°C° 0 mm 1 mps 716 mmHg 64%
    06:00 +18°C° 0 mm 1 mps 716 mmHg 58%
    07:00 +19°C° 0 mm 1 mps 716 mmHg 52%
    08:00 +21°C° 0 mm 1 mps 716 mmHg 50%
    09:00 +22°C° 0 mm 1 mps 716 mmHg 48%
    10:00 +23°C° 0 mm 1 mps 716 mmHg 45%
    11:00 +23°C° 0 mm 1 mps 715 mmHg 44%
    12:00 +24°C° 0 mm 1 mps 715 mmHg 44%
    13:00 +24°C° 0 mm 2 mps 715 mmHg 43%
    14:00 +24°C° 0 mm 1 mps 715 mmHg 44%
    15:00 +24°C° 0 mm 1 mps 715 mmHg 45%
    16:00 +24°C° 0 mm 1 mps 714 mmHg 46%
    17:00 +22°C° 0 mm 1 mps 714 mmHg 54%
    18:00 +20°C° 0 mm 1 mps 714 mmHg 62%
    19:00 +16°C° 0 mm 1 mps 714 mmHg 70%
    20:00 +16°C° 0 mm 1 mps 714 mmHg 70%
    21:00 +16°C° 0 mm 1 mps 715 mmHg 70%
    22:00 +16°C° 0 mm 2 mps 715 mmHg 71%
    23:00 +15°C° 0 mm 1 mps 715 mmHg 71%
    Show more